[[{"header":{"parameterUnit":"m.s-1","parameterCategory":1,"la1":30.2991,"la2":30.254,"lo1":-89.0895,"lo2":-89.0444,"dy":0.0017,"dx":0.0017,"nx":28,"ny":28,"refTime":"2024-04-18T21:00:00:Z","depth":0,"parameterNumber":2,"parameterNumberName":"U-component_of_WINDS"},"data":[0,0,0,0,0,0,0,0,0,0,0,0,0,0,0,0,0,0,0,0,0,0,0,0,0,0,0,0,0,0,0,0,0,0,0,0,0,0,0,0,0,0,0,0,0,0,0,0,0,0,0,0,0,0,0,0,0,0,0.2952,0.2954,0,0.3104,0.3106,0.3108,0.3185,0.3185,0.3185,0.3185,0.3341,0.3345,0.3349,0,0,0,0,0,0,0,0,0,0,0,0,0,0.2725,0.2729,0.2952,0.2954,0.2956,0.3104,0.3106,0.3108,0.3185,0.3185,0.3185,0.3185,0.3339,0.3344,0.3349,0,0,0,0,0,0,0,0,0,0,0,0,0,0.2845,0.273,0.2951,0.3012,0.3019,0.3104,0.3106,0.3109,0.3185,0.3185,0.3185,0.3185,0.3338,0.3344,0.335,0.3386,0,0,0.3369,0.3371,0,0,0,0,0,0,0,0,0.2838,0.2853,0.3001,0.3008,0.3016,0.3126,0.3084,0.3202,0.3185,0.3122,0.3185,0.3185,0.3269,0.3281,0.3309,0.3394,0.34,0.3369,0.3373,0.3376,0.3377,0,0,0,0,0,0,0,0.283,0.2847,0.3012,0.3003,0.3012,0.3031,0.3048,0.3106,0.3193,0.3127,0.3133,0.315,0.3273,0.3303,0.3314,0.3403,0.3369,0.3375,0.3378,0.3381,0.3524,0.3524,0,0,0,0,0,0,0.2812,0.284,0.3007,0.3017,0.2925,0.3035,0.3054,0.309,0.3193,0.3208,0.315,0.3153,0.3293,0.3306,0.3319,0.3369,0.3376,0.3381,0.3385,0.3524,0.3524,0.3524,0,0,0,0,0,0,0.2807,0.2826,0.3001,0.293,0.2954,0.3038,0.3079,0.3093,0.3124,0.321,0.3226,0.3165,0.3293,0.3311,0.3369,0.3375,0.3384,0.339,0.3523,0.3524,0.3524,0.3467,0,0,0,0,0,0,0.28,0.2824,0.2839,0.293,0.2957,0.3048,0.3079,0.3096,0.3134,0.314,0.3228,0.3243,0.3295,0.3359,0.3375,0.3384,0.3395,0.3523,0.3523,0.3524,0.3469,0.3465,0.3462,0,0,0,0,0,0.2792,0.2817,0.2839,0.2859,0.2978,0.3049,0.3064,0.3124,0.3134,0.315,0.3205,0.324,0.3372,0.3365,0.3383,0.3394,0.3523,0.3523,0.3524,0.347,0.3466,0.3462,0,0,0,0,0,0,0.2725,0.283,0.2856,0.2912,0.2971,0.3062,0.3083,0.3117,0.3174,0.3177,0.3248,0.3268,0.3319,0.3362,0.3353,0.3434,0.3451,0.3455,0.3404,0.3401,0.3397,0.3386,0.34,0,0,0,0,0,0.2716,0.2766,0.2855,0.2895,0.2923,0.2998,0.3031,0.3071,0.3135,0.3161,0.322,0.3281,0.3336,0.337,0.3426,0.3475,0.3495,0.3491,0.3488,0.3485,0.3487,0.3516,0.3515,0.3525,0.3525,0.3525,0,0,0.27,0.2764,0.279,0.2883,0.2934,0.2982,0.3019,0.3069,0.3105,0.3168,0.3227,0.3272,0.3345,0.3398,0.3425,0.3436,0.3489,0.3485,0.3482,0.3487,0.3516,0.3515,0.3514,0.3525,0.3525,0.3525,0,0,0.2695,0.2748,0.2787,0.2837,0.2913,0.2962,0.2971,0.3057,0.309,0.315,0.3198,0.3242,0.3335,0.3384,0.3421,0.3433,0.3467,0.3449,0.3432,0.3459,0.3458,0.3458,0.3462,0.3462,0.3451,0.3451,0.3451,0,0.2665,0.2741,0.2803,0.2851,0.289,0.2949,0.2988,0.3033,0.3123,0.3149,0.3159,0.3277,0.333,0.3395,0.3398,0.3426,0.3438,0.344,0.3453,0.3454,0.3454,0.3459,0.346,0.3448,0.3449,0.3449,0.3449,0,0.27,0.2751,0.2774,0.2859,0.2901,0.2944,0.3012,0.3047,0.3083,0.3131,0.319,0.3255,0.3324,0.3343,0.3379,0.3413,0.3418,0.344,0.3459,0.345,0.3455,0.3457,0.3445,0.3446,0.3446,0.3447,0,0,0.2658,0.2776,0.2783,0.2822,0.291,0.2951,0.2996,0.3064,0.3092,0.3151,0.3191,0.3267,0.3288,0.333,0.3372,0.3396,0.34,0.3415,0.3418,0.341,0.3441,0.3424,0.3425,0.3423,0.3423,0.3424,0.3435,0,0.2665,0.275,0.2807,0.2869,0.2917,0.2973,0.3012,0.3069,0.3115,0.3162,0.3212,0.3265,0.3289,0.3314,0.334,0.3394,0.3407,0.3394,0.346,0.3462,0.344,0.3428,0.341,0.3418,0.3438,0.3438,0.3438,0,0.2685,0.2743,0.2809,0.2891,0.2913,0.2948,0.3014,0.3058,0.3124,0.3155,0.3201,0.3243,0.3293,0.3306,0.3375,0.3365,0.3395,0.3425,0.3427,0.3436,0.3449,0.3436,0.3422,0.3422,0.3442,0.3442,0.3442,0,0.2647,0.2742,0.2794,0.2826,0.2922,0.2944,0.2985,0.3051,0.3088,0.3145,0.317,0.3232,0.3266,0.3313,0.3371,0.3375,0.3433,0.3452,0.346,0.3459,0.3471,0.3469,0.346,0.3489,0.3489,0.3489,0.3489,0,0.265,0.2688,0.2778,0.281,0.2855,0.2919,0.2961,0.3007,0.3065,0.3106,0.3158,0.3195,0.3269,0.3316,0.3361,0.3411,0.3426,0.3452,0.3464,0.3448,0.3444,0.3469,0.347,0.349,0.349,0.349,0.349,0,0.2616,0.2678,0.2738,0.2824,0.2846,0.2875,0.2948,0.2981,0.3028,0.308,0.3096,0.317,0.3227,0.329,0.3368,0.3398,0.3445,0.3462,0.3423,0.343,0.3434,0.3433,0.3441,0.3446,0.3471,0.3471,0.347,0,0.2613,0.2644,0.2733,0.2764,0.2804,0.2854,0.2892,0.2956,0.2992,0.3069,0.3092,0.3153,0.3205,0.3294,0.3355,0.3414,0.3433,0.3431,0.3442,0.3424,0.3433,0.343,0.3433,0.3428,0.3428,0.3427,0.3427,0,0.2602,0.2631,0.2683,0.2746,0.2789,0.2841,0.2896,0.2918,0.2993,0.3032,0.3091,0.3131,0.321,0.327,0.3336,0.3378,0.3415,0.3423,0.3428,0.3412,0.3388,0.3401,0.3414,0.3423,0.3423,0.3423,0.3424,0.3424,0.2584,0.2613,0.268,0.2737,0.2784,0.2833,0.2868,0.292,0.297,0.304,0.3074,0.3133,0.3197,0.329,0.3331,0.3377,0.3388,0.3396,0.3398,0.3399,0.3394,0.338,0.3389,0.339,0.339,0.339,0.339,0,0.2575,0.2621,0.2672,0.2746,0.279,0.282,0.2881,0.2916,0.2967,0.3023,0.3073,0.314,0.3198,0.3263,0.3325,0.3349,0.3367,0.3363,0.3362,0.3371,0.3381,0.337,0.3347,0.3347,0.3347,0.3347,0.3347,0.3347,0.2576,0.2627,0.2664,0.2739,0.2785,0.2842,0.2875,0.292,0.2966,0.3038,0.3086,0.3128,0.3188,0.3254,0.3308,0.3326,0.3346,0.3337,0.3359,0.3367,0.337,0.3374,0.3364,0.334,0.334,0.3346,0.3346,0.3346]},{"header":{"parameterUnit":"m.s-1","parameterCategory":1,"la1":30.2991,"la2":30.254,"lo1":-89.0895,"lo2":-89.0444,"dy":0.0017,"dx":0.0017,"nx":28,"ny":28,"refTime":"2024-04-18T21:00:00:Z","depth":0,"parameterNumber":3,"parameterNumberName":"V-component_of_WINDS"},"data":[0,0,0,0,0,0,0,0,0,0,0,0,0,0,0,0,0,0,0,0,0,0,0,0,0,0,0,0,0,0,0,0,0,0,0,0,0,0,0,0,0,0,0,0,0,0,0,0,0,0,0,0,0,0,0,0,0,0,2.9252,2.9251,0,2.9154,2.9152,2.9151,2.9098,2.9098,2.9098,2.9098,2.899,2.8987,2.8984,0,0,0,0,0,0,0,0,0,0,0,0,0,2.9388,2.9386,2.9252,2.9251,2.925,2.9154,2.9152,2.9151,2.9098,2.9098,2.9098,2.9098,2.8991,2.8987,2.8984,0,0,0,0,0,0,0,0,0,0,0,0,0,2.9313,2.9385,2.9252,2.9212,2.9207,2.9154,2.9152,2.9151,2.9098,2.9098,2.9098,2.9098,2.8992,2.8988,2.8983,2.896,0,0,2.8971,2.8969,0,0,0,0,0,0,0,0,2.9317,2.9308,2.9219,2.9215,2.9209,2.9138,2.916,2.9087,2.9098,2.9139,2.9098,2.9098,2.9039,2.9031,2.9012,2.8955,2.8951,2.897,2.8968,2.8966,2.8965,0,0,0,0,0,0,0,2.9322,2.9312,2.9213,2.9218,2.9212,2.9197,2.9186,2.9146,2.9091,2.9136,2.9132,2.9121,2.9036,2.9016,2.9009,2.8949,2.897,2.8967,2.8964,2.8962,2.8868,2.8868,0,0,0,0,0,0,2.9335,2.9316,2.9216,2.921,2.9264,2.9194,2.9182,2.9161,2.9091,2.9081,2.9122,2.9119,2.9024,2.9014,2.9005,2.8974,2.8966,2.8962,2.896,2.8868,2.8868,2.8868,0,0,0,0,0,0,2.9338,2.9327,2.922,2.9262,2.9247,2.9192,2.9169,2.9159,2.914,2.908,2.907,2.9112,2.9023,2.9011,2.8973,2.897,2.896,2.8956,2.8868,2.8868,2.8868,2.8912,0,0,0,0,0,0,2.9342,2.9328,2.932,2.9262,2.9245,2.9191,2.9169,2.9157,2.9133,2.913,2.9069,2.9058,2.9022,2.8979,2.8968,2.8964,2.8953,2.8868,2.8868,2.8868,2.891,2.8913,2.8916,0,0,0,0,0,2.9347,2.9334,2.932,2.9308,2.9235,2.9191,2.9181,2.9142,2.9134,2.9124,2.9086,2.906,2.8972,2.8976,2.8963,2.8957,2.8868,2.8868,2.8868,2.8909,2.8913,2.8916,0,0,0,0,0,0,2.939,2.9326,2.9309,2.9278,2.9241,2.9182,2.9169,2.9146,2.9109,2.9106,2.9056,2.9043,2.9009,2.8979,2.8984,2.8931,2.8917,2.8915,2.8952,2.8955,2.8958,2.8966,2.8949,0,0,0,0,0,2.9397,2.9369,2.9313,2.929,2.9273,2.9225,2.9204,2.9177,2.9135,2.9119,2.9078,2.9036,2.8999,2.8975,2.8938,2.8906,2.8891,2.8895,2.8898,2.8901,2.8899,2.888,2.8881,2.8869,2.8869,2.8869,0,0,2.9408,2.937,2.9354,2.9298,2.9266,2.9237,2.9211,2.9181,2.9158,2.9113,2.9075,2.9044,2.8994,2.8959,2.8941,2.8933,2.8899,2.8901,2.8903,2.89,2.888,2.8881,2.8883,2.8869,2.8869,2.8869,0,0,2.9414,2.9383,2.9361,2.933,2.9284,2.9252,2.9247,2.9192,2.917,2.9132,2.9098,2.9069,2.9006,2.8972,2.8947,2.8942,2.8917,2.8931,2.8945,2.8927,2.8928,2.8929,2.8928,2.8928,2.893,2.893,2.893,0,2.9434,2.9391,2.9352,2.9324,2.93,2.9262,2.9238,2.9209,2.9151,2.9135,2.9126,2.9048,2.9011,2.8968,2.8968,2.8948,2.894,2.8938,2.8932,2.8932,2.8932,2.893,2.893,2.8932,2.8932,2.8931,2.8931,0,2.9417,2.9388,2.9375,2.9324,2.9298,2.9273,2.9229,2.9207,2.9183,2.9151,2.9113,2.9068,2.9022,2.9009,2.8984,2.8962,2.8959,2.8942,2.8927,2.8936,2.8934,2.8932,2.8935,2.8934,2.8934,2.8933,0,0,2.9447,2.9376,2.9372,2.9349,2.9295,2.927,2.9243,2.92,2.9182,2.9143,2.9118,2.9067,2.9052,2.9023,2.8994,2.8978,2.8978,2.8963,2.8961,2.8968,2.8952,2.8965,2.8965,2.8961,2.8961,2.8961,2.8956,0,2.9445,2.9397,2.9362,2.9327,2.9299,2.9262,2.9238,2.9201,2.9171,2.9141,2.9107,2.9072,2.9054,2.9037,2.902,2.8982,2.8974,2.8981,2.8936,2.8935,2.895,2.8964,2.8977,2.8975,2.8955,2.8955,2.8955,0,2.9437,2.9404,2.9366,2.9317,2.9304,2.9283,2.9241,2.9214,2.9171,2.915,2.912,2.909,2.9058,2.9046,2.9,2.9006,2.8985,2.8964,2.8963,2.8957,2.8945,2.8958,2.8974,2.8974,2.8953,2.8953,2.8953,0,2.9463,2.9408,2.9379,2.936,2.9301,2.9288,2.9262,2.922,2.9196,2.9159,2.9144,2.9102,2.9079,2.9047,2.9006,2.9002,2.8965,2.895,2.8946,2.8947,2.8939,2.894,2.8952,2.8926,2.8926,2.8926,2.8926,0,2.9466,2.9444,2.939,2.9372,2.9347,2.9306,2.9281,2.9252,2.9215,2.9189,2.9154,2.913,2.9078,2.9047,2.9015,2.8982,2.8972,2.8953,2.8945,2.8956,2.8959,2.8942,2.8941,2.8926,2.8926,2.8926,2.8926,0,2.949,2.9453,2.9419,2.9367,2.9354,2.9338,2.9292,2.9272,2.9241,2.9209,2.9199,2.915,2.9112,2.9069,2.9016,2.8994,2.8964,2.8951,2.8979,2.8974,2.8973,2.8974,2.8974,2.8972,2.8948,2.8948,2.8948,0,2.9494,2.9477,2.9425,2.9407,2.9383,2.9354,2.9331,2.929,2.9267,2.9219,2.9205,2.9165,2.9131,2.9072,2.903,2.8989,2.8976,2.8979,2.8969,2.8982,2.8976,2.8978,2.8976,2.8981,2.8982,2.8982,2.8982,0,2.9505,2.9488,2.9458,2.9422,2.9397,2.9366,2.9333,2.9319,2.9271,2.9247,2.921,2.9184,2.9132,2.9093,2.9048,2.9018,2.8992,2.8986,2.8983,2.8995,2.9012,2.9003,2.8987,2.8986,2.8986,2.8985,2.8985,2.8985,2.9519,2.9503,2.9465,2.9432,2.9404,2.9375,2.9355,2.9322,2.9292,2.9248,2.9225,2.9188,2.9146,2.9083,2.9055,2.9024,2.9015,2.9011,2.9009,2.9009,2.9013,2.9017,2.9016,2.9015,2.9015,2.9015,2.9015,0,2.9529,2.9503,2.9474,2.9431,2.9406,2.9387,2.9349,2.9329,2.9298,2.9262,2.9231,2.9188,2.915,2.9106,2.9065,2.9049,2.9036,2.904,2.904,2.9034,2.9023,2.903,2.9051,2.9051,2.9051,2.9051,2.9051,2.9051,2.9531,2.9503,2.9482,2.9439,2.9413,2.9379,2.936,2.9332,2.9303,2.9259,2.9228,2.9201,2.9161,2.9118,2.9082,2.9069,2.9056,2.9063,2.9047,2.9038,2.9035,2.9032,2.9038,2.9061,2.9061,2.9061,2.9061,2.9061]}]]